Wind_Speed
31 31 32 32 33 34 34 33 31 30 29 27 26 24 22 21 21 21 21 21 22 22 23 23 24 25 26 27 28 28 28 28 27 26 25 26 26 27
32 32 33 33 33 33 33 32 30 29 29 27 24 23 21 21 20 19 20 20 21 22 22 23 24 25 26 26 27 28 29 29 28 27 26 26 27 28
34 33 33 33 33 33 32 31 29 28 27 25 23 22 21 20 19 19 19 20 21 21 22 23 24 26 26 27 27 28 29 29 29 29 29 29 29 30
32 31 31 30 29 28 28 28 27 25 25 23 21 20 20 20 19 19 19 19 21 22 23 23 24 25 26 26 27 28 28 29 30 30 30 30 30 30
26 26 26 25 25 24 25 25 24 23 22 22 20 20 20 20 19 19 19 20 21 23 23 23 23 24 25 26 26 26 26 27 27 26 27 28 28 29
19 19 20 20 21 22 22 22 22 21 21 20 20 19 20 20 20 19 19 20 21 22 23 23 24 26 25 25 24 24 23 23 23 23 24 25 26 27
16 17 17 18 18 20 20 20 19 19 19 19 20 19 20 20 20 19 19 18 19 20 22 23 25 26 26 25 25 24 24 24 25 25 26 27 27 29
18 18 19 19 19 20 20 19 19 18 18 19 20 20 20 20 20 19 18 17 17 17 19 21 22 24 25 26 26 27 27 27 28 30 31 31 31 31
19 20 21 21 21 21 20 19 18 18 18 19 20 20 21 21 20 20 18 16 15 16 16 16 18 20 23 24 27 29 30 31 32 33 33 34 34 35
19 21 22 22 22 21 20 18 17 17 17 18 18 19 20 20 20 19 18 17 16 15 14 14 15 16 19 21 24 25 28 30 32 34 35 36 36 37
19 20 21 22 22 21 19 18 16 15 15 15 15 16 17 18 18 18 17 16 16 15 14 14 14 15 16 19 21 24 27 29 31 33 35 36 37 38
18 19 20 20 20 19 19 18 16 14 13 13 12 12 13 14 15 16 16 15 15 15 15 15 16 17 19 21 23 25 27 29 31 33 35 37 38 39
16 17 18 19 19 19 17 17 16 15 13 12 11 11 10 11 12 13 14 14 14 14 14 15 16 17 19 21 23 25 27 30 32 34 36 38 40 41
13 14 15 16 17 17 17 16 15 14 13 12 10 9 9 9 9 11 11 12 11 11 11 12 13 15 17 19 22 25 27 30 33 35 38 40 42 43
9 10 12 13 14 15 15 15 14 14 13 11 10 8 7 7 7 7 7 7 7 7 8 9 11 13 15 18 22 25 28 31 34 37 39 40 41 42
6 7 9 11 12 13 14 14 14 13 12 11 10 9 7 6 5 4 4 3 3 4 5 7 9 12 16 19 23 26 29 32 33 34 35 35 36 36
3 2 6 9 11 13 13 12 12 11 11 10 10 9 7 5 4 3 2 0 1 3 5 7 11 14 17 21 24 27 29 30 30 30 30 30 30 31
13 11 10 10 11 12 12 12 12 12 11 10 9 9 8 6 5 4 4 4 4 5 7 9 12 16 20 23 27 29 30 30 30 30 29 28 27 28
24 21 18 17 15 15 15 15 14 13 12 11 11 10 9 8 7 7 6 6 6 7 9 12 15 19 22 26 29 32 33 33 32 30 29 28 26 26
28 26 24 22 20 19 18 17 16 15 14 13 12 11 10 10 9 8 8 7 7 8 11 13 17 20 23 27 29 32 34 34 33 31 29 28 26 25
28 27 26 24 22 21 20 19 17 16 14 14 13 12 11 10 9 8 8 7 8 9 11 14 17 20 23 26 28 30 32 33 33 32 31 29 28 27
25 24 24 23 22 21 19 18 17 16 16 14 13 12 11 10 9 8 8 8 9 10 12 15 18 20 22 24 25 27 29 31 32 33 33 32 31 30
21 20 20 19 18 18 17 16 16 15 14 12 11 10 10 9 8 8 8 8 9 11 13 15 18 20 21 23 24 25 27 28 30 31 32 32 32 31
Wind_Direction
258 258 259 258 257 255 255 253 255 259 262 262 262 263 260 258 257 258 262 265 264 263 259 255 252 250 250 250 251 250 250 251 252 254 255 256 257 259
257 259 257 255 253 252 251 250 253 258 258 258 257 257 257 256 254 256 260 263 263 261 258 255 253 252 251 251 251 252 252 253 254 255 257 258 259 261
253 253 252 251 249 250 249 249 251 254 254 254 253 253 253 252 252 257 261 262 263 262 260 258 256 253 251 250 251 252 253 255 256 258 261 262 262 262
249 247 246 246 246 246 246 248 249 250 250 250 250 250 249 250 253 258 262 265 265 262 261 259 258 254 251 251 252 253 255 258 260 262 264 265 264 263
240 241 241 241 242 243 245 247 248 248 248 248 248 248 247 248 251 256 262 266 265 261 259 257 256 255 253 253 254 255 257 259 262 265 266 267 266 263
242 242 241 241 242 244 246 248 249 249 248 248 248 247 246 246 249 254 260 264 263 260 256 254 256 253 251 252 253 255 257 260 263 266 269 270 269 266
258 253 248 246 246 248 248 249 251 251 249 248 247 246 245 245 246 251 258 263 265 259 254 253 255 252 248 248 250 252 255 259 263 266 270 272 272 271
263 259 255 253 252 251 250 250 251 251 251 249 247 246 245 245 246 248 253 262 264 261 257 256 253 248 248 249 250 252 254 260 264 267 269 271 272 272
255 251 248 249 249 250 251 252 252 251 250 249 247 246 246 245 246 248 251 256 262 262 261 258 254 250 252 254 256 257 259 264 265 268 270 271 271 272
253 248 245 243 244 247 247 248 250 249 249 248 247 246 246 246 246 247 250 252 258 262 266 265 265 266 264 263 264 266 268 270 271 271 271 271 272 271
254 249 244 243 243 245 244 242 241 240 240 242 244 246 246 245 245 245 247 251 254 256 259 266 271 271 274 277 276 276 275 275 275 274 274 273 273 272
255 249 244 243 241 241 239 236 233 234 237 238 239 241 243 243 244 245 246 248 251 255 259 264 270 273 277 279 281 282 282 282 281 280 278 277 276 275
256 249 245 241 237 235 233 232 230 231 233 233 234 236 240 243 244 244 245 247 251 258 263 268 274 279 283 286 287 287 286 285 284 283 282 280 278 276
260 250 243 238 235 232 228 226 226 228 229 226 225 228 232 239 242 240 243 247 252 259 266 275 283 289 293 296 297 296 295 293 290 288 286 283 281 279
264 249 237 231 228 224 220 219 220 223 224 220 216 216 218 227 230 230 231 237 247 264 278 290 298 304 307 309 308 307 304 301 298 295 292 289 287 285
277 246 232 220 215 212 211 213 215 214 214 210 207 202 200 202 204 206 212 232 263 287 304 315 322 324 323 322 320 318 316 313 310 307 303 299 296 293
26 179 190 192 194 195 197 198 198 197 194 193 191 188 183 172 167 166 173 201 357 359 356 349 345 344 342 340 337 335 333 330 327 323 318 313 309 305
69 89 116 138 151 160 166 168 168 169 169 168 166 160 154 148 140 127 106 82 53 29 15 9 4 0 358 357 355 352 349 346 342 338 333 327 321 316
72 82 94 108 117 127 136 142 145 146 146 143 141 139 135 127 118 107 93 74 52 36 25 18 15 12 10 7 5 3 0 357 353 349 345 341 337 332
71 78 86 95 103 109 116 120 123 125 126 126 125 122 117 112 105 95 83 67 51 37 28 24 21 18 15 14 12 10 8 6 4 2 359 356 353 350
70 76 81 86 92 97 102 107 110 112 113 113 112 109 105 99 92 85 76 63 48 36 28 24 22 20 18 16 16 15 14 14 14 13 12 11 10 8
67 72 77 82 86 90 94 96 99 101 103 103 101 97 93 90 84 77 68 55 41 33 27 24 21 19 17 16 15 16 17 18 20 21 21 21 21 19
64 68 72 76 80 84 86 88 90 92 94 95 93 91 89 85 78 70 59 46 37 30 26 22 19 16 14 14 13 14 15 17 20 23 25 25 25 25
Height
5817 5818 5819 5819 5821 5823 5826 5827 5829 5830 5830 5830 5831 5831 5831 5831 5831 5831 5830 5830 5830 5830 5831 5831 5832 5833 5835 5836 5838 5839 5840 5841 5842 5843 5843 5844 5844 5845
5808 5809 5810 5811 5812 5814 5817 5819 5821 5822 5823 5823 5824 5824 5824 5824 5825 5825 5825 5824 5824 5824 5825 5825 5826 5827 5829 5830 5832 5833 5834 5835 5836 5836 5837 5837 5837 5837
5800 5801 5802 5803 5804 5806 5809 5811 5813 5814 5815 5816 5818 5818 5818 5818 5818 5818 5818 5818 5818 5819 5819 5820 5820 5821 5822 5824 5825 5827 5828 5829 5829 5830 5830 5830 5829 5829
5792 5792 5794 5795 5797 5799 5802 5804 5806 5807 5808 5809 5811 5811 5812 5813 5813 5812 5812 5812 5812 5813 5813 5813 5814 5815 5816 5818 5819 5820 5822 5822 5823 5823 5822 5822 5821 5821
5784 5785 5787 5788 5790 5793 5795 5797 5799 5800 5801 5802 5804 5805 5806 5807 5807 5807 5807 5807 5806 5807 5807 5807 5808 5809 5810 5812 5813 5814 5815 5816 5816 5816 5815 5814 5814 5813
5778 5779 5781 5782 5784 5787 5789 5791 5792 5793 5794 5795 5797 5798 5799 5801 5801 5801 5801 5801 5801 5801 5801 5802 5803 5803 5805 5806 5807 5808 5809 5809 5809 5809 5809 5808 5807 5807
5773 5774 5776 5777 5779 5781 5783 5785 5786 5787 5788 5789 5791 5792 5794 5795 5795 5796 5796 5796 5796 5796 5796 5796 5797 5798 5799 5800 5801 5802 5803 5803 5803 5803 5802 5802 5801 5800
5768 5769 5770 5772 5773 5775 5777 5778 5779 5781 5782 5784 5785 5786 5788 5789 5790 5790 5791 5791 5791 5791 5791 5791 5792 5792 5793 5794 5795 5796 5796 5797 5797 5796 5795 5794 5793 5792
5762 5763 5764 5766 5767 5769 5770 5772 5773 5775 5777 5778 5780 5781 5782 5783 5784 5785 5786 5786 5787 5786 5787 5787 5787 5788 5789 5789 5790 5790 5790 5790 5789 5788 5787 5786 5784 5783
5755 5756 5758 5759 5761 5762 5764 5766 5768 5769 5771 5773 5774 5775 5777 5778 5779 5780 5781 5782 5783 5783 5783 5783 5783 5783 5783 5784 5784 5783 5783 5782 5781 5780 5778 5777 5775 5773
5749 5750 5751 5753 5755 5757 5759 5761 5763 5765 5766 5768 5769 5770 5771 5773 5774 5776 5777 5778 5779 5779 5779 5780 5779 5779 5779 5779 5778 5777 5776 5775 5773 5771 5769 5767 5765 5763
5742 5744 5745 5747 5749 5751 5754 5756 5758 5760 5762 5764 5765 5766 5767 5768 5769 5771 5773 5774 5775 5776 5776 5776 5776 5776 5775 5774 5773 5772 5770 5768 5765 5763 5760 5757 5755 5752
5736 5737 5739 5741 5743 5746 5749 5751 5754 5756 5758 5760 5762 5763 5764 5765 5766 5767 5769 5770 5771 5772 5772 5772 5772 5771 5770 5769 5767 5765 5763 5760 5757 5753 5750 5746 5743 5740
5730 5731 5733 5735 5738 5741 5744 5747 5750 5753 5755 5757 5759 5761 5762 5763 5764 5765 5766 5767 5768 5768 5769 5769 5768 5767 5766 5764 5762 5759 5755 5751 5747 5743 5739 5735 5730 5727
5725 5726 5728 5730 5733 5736 5740 5744 5747 5750 5753 5755 5757 5759 5760 5761 5762 5763 5764 5765 5766 5766 5766 5766 5765 5764 5762 5759 5756 5752 5748 5743 5737 5732 5727 5722 5717 5713
5721 5722 5723 5725 5729 5732 5736 5740 5744 5748 5750 5753 5755 5757 5759 5760 5761 5762 5763 5764 5764 5764 5764 5764 5762 5760 5758 5754 5750 5745 5740 5734 5727 5721 5716 5710 5705 5701
5718 5718 5720 5723 5726 5730 5734 5739 5743 5746 5749 5752 5754 5756 5758 5760 5761 5762 5763 5763 5763 5763 5763 5761 5759 5757 5753 5749 5744 5739 5733 5726 5719 5713 5707 5701 5696 5691
5720 5719 5721 5723 5727 5731 5735 5739 5743 5746 5749 5751 5754 5756 5759 5760 5761 5762 5763 5763 5763 5762 5761 5759 5757 5754 5750 5745 5740 5734 5727 5720 5713 5706 5700 5694 5689 5684
5727 5727 5727 5729 5732 5735 5738 5741 5745 5748 5750 5753 5755 5757 5759 5761 5762 5763 5763 5763 5762 5762 5760 5758 5755 5752 5748 5743 5737 5730 5723 5716 5709 5702 5696 5690 5684 5679
5738 5737 5737 5738 5740 5741 5744 5746 5749 5751 5753 5756 5758 5759 5761 5762 5763 5763 5764 5764 5763 5762 5760 5757 5754 5750 5746 5741 5735 5729 5723 5715 5708 5701 5694 5687 5682 5676
5749 5748 5748 5748 5748 5749 5751 5753 5754 5756 5758 5759 5761 5762 5763 5764 5765 5765 5765 5764 5763 5762 5760 5757 5754 5750 5746 5741 5736 5730 5724 5717 5709 5702 5695 5688 5682 5676
5759 5758 5757 5757 5757 5757 5758 5759 5760 5761 5762 5763 5764 5765 5766 5766 5766 5766 5766 5765 5764 5762 5760 5757 5754 5750 5746 5742 5737 5732 5726 5719 5712 5704 5697 5690 5684 5677
5766 5765 5764 5764 5764 5764 5764 5765 5765 5766 5766 5767 5767 5768 5768 5768 5768 5767 5766 5765 5764 5762 5760 5757 5754 5750 5747 5742 5738 5733 5727 5721 5714 5708 5701 5694 5687 5681